Погода в Чжалайноре

Китай     49°28′16″N   117°41′33″E
темп.,
°C
ветер,
м/с
пор.,
м/с
влажн.,
%
обл.,
%
осадки,
мм/ч
давл.,
гПа
погр.,
м
23 октября, сб
сб2323:00+2юз22580 0.0 102513
02:00+1юз22620 0.0 102415
05:000юз22610 0.0 102412
08:00+3юз22520 0.0 102330
11:00+7ююз33360 0.0 1022433
14:00+10юз34320 0.0 1020692
17:00+5юз22500 0.0 102115
20:00+3сз22570 0.0 102214
24 октября, вс
вс2423:00+2сз22560 0.0 102210
02:00+1зсз22530 0.0 102110
05:00+1зсз11530 0.0 102010
08:00+3зсз11505 0.0 102010
11:00+8юз22375 0.0 1019416
14:00+10юз34355 0.0 1017819
17:00+5зюз225613 0.0 101713
20:00+3зсз22625 0.0 101916
25 октября, пн
пн2523:00+2зсз226181 0.0 101810
02:00+1зсз2261100 0.0 101710
05:00+1зсз226231 0.0 101713
08:00+2зсз34595 0.0 101770
11:00+7зсз57472 0.0 1015647
14:00+8зсз68484 0.0 1014891
17:00+4з34635 0.0 101569
20:00+2зсз3567100 0.0 101791
26 октября, вт
вт2623:00+3зсз51167100 0.0 1017294
02:00+2сз613731 0.0 1018373
05:000зсз614784 0.0 1019374
08:00+1зсз713733 0.0 1021397
11:00+5зсз811525 0.0 1020547
14:00+6зсз8104796 0.0 1018749
17:00+4зюз475253 0.0 1018144
20:00+4зюз61446100 0.0 1016343
27 октября, ср
ср2723:00+5зсз6145226 0.0 1015422
02:00+3зсз715640 0.0 1016439
05:00+2зсз715690 0.0 1017396
08:00+1сз512690 0.0 1019399
11:00+6ссз69440 0.0 1020964
14:00+8ссз67380 0.0 10211024
17:00+4сз33491 0.0 102321
20:00+2зсз22565 0.0 102410